Regional Weather Roundup
Issued by NWS Goodland, KS

Home | Current Version | Previous Version | Graphics & Text | Print | Product List | Glossary On
Versions: 1 2 3 4 5 6 7 8 9 10 11 12 13 14 15 16 17 18 19 20 21 22 23 24 25 26 27 28 29 30 31 32 33 34 35 36 37 38 39 40 41 42 43 44 45 46 47 48 49 50
000
ASUS43 KGLD 201459
RWRGLD

GOODLAND FORECAST AREA HOURLY WEATHER ROUNDUP
NATIONAL WEATHER SERVICE GOODLAND KS
900 AM MDT MON OCT 20 2014

...OFFICIAL OBSERVATIONS...

CITY           SKY/WX    TMP DP  RH WIND       PRES   REMARKS
GOODLAND KS    SUNNY     55  46  71 W3        30.18R
HILL CITY KS   SUNNY     54  47  77 CALM      30.14R
IMPERIAL NEB   SUNNY     51  39  63 CALM      30.16R
MCCOOK NEB     SUNNY     49  42  77 SW5       30.15R
AKRON CO       SUNNY     58  40  51 S9        30.17R
BURLINGTON CO  SUNNY     53  43  68 W3        30.19R
LIMON CO       SUNNY     52  42  69 CALM      30.22R
$$

...UNOFFICIAL OBSERVATIONS...

CITY           SKY/WX    TMP DP  RH WIND       PRES   REMARKS
COLBY KS       SUNNY     54  48  82 W3        30.17R
GOVE KS          N/A     52  32  46 MISG        N/A
NORTON KS      SUNNY     54  45  71 CALM      30.13R
SHARON SPRINGS   N/A     52  48  86 CALM        N/A
TRIBUNE KS     SUNNY     57  54  88 CALM      30.19R
TRENTON NEB      N/A     53  32  45 CALM        N/A
KIT CARSON CO    N/A     55  46  72 CALM        N/A
YUMA CO          N/A     50  44  80 CALM        N/A
$$


USA.gov is the U.S. government's official web portal to all federal, state and local government web resources and services.